SCP
0 0 0 0 0 0 0 0 -0 -0 0 0 0 0 0 -0 -0 0 0 -0 -0 -0 0 0 0 -0 -0 -0 -0 -0 -0 -0 -0 -0 -0 -0 -0 -0 -0 -0 -0 -0 -0 -0 -0 -0 -0 -0 -0
0 0 0 0 0 0 0 0 -0 -0 0 0 0 0 0 -0 -0 -0 -0 -0 -0 -0 -0 0 0 -0 -0 -0 -0 -0 -0 -0 -0 -0 -0 -0 -0 -0 -0 -0 -0 -0 -0 -0 -0 -0 -0 -0 -0
0 0 0 0 0 0 0 0 -0 0 0 -0 -0 0 -0 -0 -0 0 -0 -0 -0 -0 -0 -0 -0 -0 -0 -0 -0 -0 -0 -0 -0 -0 -0 -0 -0 -0 -0 -0 -0 -0 -0 -0 -0 -0 -0 -0 -0
0 0 0 0 0 0 0 0 -0 0 0 0 0 -0 0 0 -0 0 -0 -0 -0 -0 -0 0 -0 -0 -0 -0 -0 -0 -0 -0 -0 -0 -0 -0 -0 -0 -0 -0 -0 -0 -0 -0 -0 -0 -0 -0 -0
0 0 0 0 0 0 0 -0 0 0 0 0 0 -0 0 0 -0 -0 -0 -0 -0 -0 0 -0 -0 -0 -0 -0 -0 -0 -0 -0 -0 -0 -0 -0 -0 -0 -0 -0 -0 -0 -0 -0 -0 -0 -0 -0 0
0 0 0 0 0 0 0 -0 0 0 -0 0 0 0 0 -0 0 0 -0 0 -0 -0 0 -0 0 -0 0 0 -0 -0 0 0 0 -0 0 -0 -0 -0 -0 -0 -0 -0 -0 -0 -0 -0 0 0 0
0 0 0 0 0 0 0 0 0 0 0 0 0 0 0 0 0 0 0 0 0 -0 -0 -0 -0 -0 -0 -0 -0 -0 -0 -0 -0 0 -0 0 -0 -0 -0 0 -0 -0 -0 -0 -0 0 0 0 0
0 0 0 0 0 0 0 0 0 0 0 0 0 -0 0 0 0 -0 0 0 0 0 -0 -0 -0 -0 0 0 -0 -0 -0 -0 -0 -0 0 0 0 0 0 0 0 -0 -0 -0 -0 0 0 0 0
0 0 0 0 0 0 0 0 0 0 0 0 0 -0 0 0 0 0 0 0 0 0 -0 -0 -0 0 0 0 0 -0 -0 -0 -0 -0 -0 -0 0 0 0 0 -0 -0 -0 -0 0 0 0 0 0
0 0 0 0 0 0 0 0 0 0 0 0 0 0 -0 0 0 0 0 0 0 0 0 0 -0 0 0 0 0 0 -0 -0 -0 -0 -0 -0 0 0 0 0 0 0 0 0 0 0 0 0 0
0 0 0 0 0 0 0 0 0 0 0 0 -0 -0 0 0 0 0 0 0 0 0 0 0 -0 0 -0 -0 -0 -0 -0 -0 -0 -0 -0 0 0 0 0 0 0 0 0 0 0 0 0 0 0
0 0 0 0 0 0 0 0 0 0 0 0 0 -0 0 -0 -0 -0 0 0 -0 0 0 0 -0 0 0 -0 -0 -0 -0 -0 -0 -0 0 0 0 0 0 0 0 0 0 0 0 0 0 0 0
0 0 0 0 0 0 0 0 0 0 0 0 0 0 0 0 0 0 0 0 -0 -0 -0 -0 0 0 -0 -0 0 -0 -0 0 -0 -0 -0 0 0 0 0 0 0 0 0 0 0 0 0 0 0
0 0 0 0 0 0 0 0 0 0 0 0 0 0 -0 -0 -0 -0 0 0 -0 -0 -0 -0 -0 0 -0 -0 0 0 -0 -0 -0 -0 0 0 0 0 0 0 0 0 0 0 0 0 0 0 0
0 0 0 0 0 0 0 0 0 0 0 0 0 0 -0 -0 -0 -0 -0 0 -0 -0 -0 -0 -0 -0 -0 -0 -0 0 0 0 0 0 0 0 0 0 0 0 0 0 0 0 0 0 0 0 0
0 0 0 0 0 0 0 0 0 0 0 0 0 0 0 -0 -0 -0 -0 0 -0 -0 -0 -0 -0 -0 -0 -0 0 0 0 0 0 0 0 0 0 0 0 0 0 0 0 0 0 0 0 0 0
0 0 0 0 0 0 0 0 0 0 0 0 0 0 0 0 0 -0 0 0 0 0 0 0 0 -0 0 0 0 0 0 0 0 0 0 0 0 0 0 0 0 0 0 0 0 0 0 0 0
0 0 0 0 0 0 0 0 0 0 0 0 0 0 0 0 0 0 0 0 0 0 0 0 0 0 0 0 0 0 0 0 0 0 0 0 0 0 0 0 0 0 0 0 0 0 0 0 0
0 0 0 0 0 0 0 0 0 0 0 0 0 0 0 0 0 0 0 0 0 0 0 0 0 0 0 0 0 0 0 0 0 0 0 0 0 0 0 0 0 0 0 0 0 0 0 0 0
0 0 0 0 0 0 0 0 0 0 0 0 0 0 0 0 0 0 0 0 0 0 0 0 0 0 0 0 0 0 0 0 0 0 0 0 0 0 0 0 0 0 0 0 0 0 0 0 0
0 0 0 0 0 0 0 0 0 0 0 0 0 0 0 0 0 0 0 0 0 0 0 0 0 0 0 0 0 0 0 0 0 0 0 0 0 0 0 0 0 0 0 0 0 0 0 0 0
0 0 0 0 0 0 0 0 0 0 0 0 0 0 0 0 0 0 0 0 0 0 0 0 0 0 0 0 0 0 0 0 0 0 0 0 0 0 0 0 0 0 0 0 0 0 0 0 0
0 0 0 0 0 0 0 0 0 0 0 0 0 0 0 0 0 0 0 0 0 0 0 0 0 0 0 0 0 0 0 0 0 0 0 0 0 0 0 0 0 0 0 0 0 0 0 0 0
0 0 0 0 0 0 0 0 0 0 0 0 0 0 0 0 0 0 0 0 0 0 0 0 0 0 0 0 0 0 0 0 0 0 0 0 0 0 0 0 0 0 0 0 0 0 0 0 0
0 0 0 0 0 0 0 0 0 0 0 0 0 0 0 0 0 0 0 0 0 0 0 0 0 0 0 0 0 0 0 0 0 0 0 0 0 0 0 0 0 0 0 0 0 0 0 0 0
0 0 0 0 0 0 0 0 0 0 0 0 0 0 0 0 0 0 0 0 0 0 0 0 0 0 0 0 0 0 0 0 0 0 0 0 0 0 0 0 0 0 0 0 0 0 0 0 0
0 0 0 0 0 0 0 0 0 0 0 0 0 0 0 0 0 0 0 0 0 0 0 0 0 0 0 0 0 0 0 0 0 0 0 0 0 0 0 0 0 0 0 0 0 0 0 0 0
0 0 0 0 0 0 0 0 0 0 0 0 0 0 0 0 0 0 0 0 0 0 0 0 0 0 0 0 0 0 0 0 0 0 0 0 0 0 0 0 0 0 0 0 0 0 0 0 0
0 0 0 0 0 0 0 0 0 0 0 0 0 0 0 0 0 0 0 0 0 0 0 0 0 0 0 0 0 0 0 0 0 0 0 0 0 0 0 0 0 0 0 0 0 0 0 0 0
0 0 0 0 0 0 0 0 0 0 0 0 0 0 0 0 0 0 0 0 0 0 0 0 0 0 0 0 0 0 0 0 0 0 0 0 0 0 0 0 0 0 0 0 0 0 0 0 0
Wind_Speed_500mb
2 11 6 5 6 9 4 3 9 9 8 19 22 26 23 19 6 10 38 21 25 33 32 29 27 27 26 23 24 24 25 23 22 25 29 33 34 35 33 32 35 34 36 37 34 32 35 37 36
4 7 6 4 7 4 9 7 17 12 18 23 29 21 19 8 20 35 36 34 26 30 34 30 27 29 31 27 26 25 24 22 20 26 34 36 33 29 32 33 34 38 35 33 32 33 32 33 30
4 4 4 6 3 4 8 7 14 18 16 8 10 24 13 16 29 37 38 34 31 33 34 31 31 30 29 28 28 22 19 21 19 26 30 38 33 26 33 31 31 36 26 30 30 26 25 22 25
1 4 6 7 3 10 12 12 34 15 15 13 28 20 18 16 17 35 39 31 31 39 31 30 26 28 32 29 28 20 17 20 21 25 27 31 29 31 27 27 33 31 24 25 24 23 24 24 23
3 4 3 2 2 3 8 39 28 11 17 10 17 9 14 14 20 52 41 34 35 33 30 29 28 30 31 29 29 18 15 19 25 23 26 25 25 26 25 31 32 23 17 22 22 21 20 22 20
1 1 5 5 6 4 8 33 27 20 26 36 37 22 11 18 61 49 41 37 27 31 35 35 34 33 33 31 26 19 19 21 25 23 24 24 23 24 29 26 24 17 15 17 19 19 18 17 17
6 7 8 1 7 7 6 12 24 24 19 8 26 12 33 41 53 46 37 31 27 31 29 31 32 31 33 29 24 22 22 26 26 23 24 23 22 24 26 24 16 9 8 13 15 15 15 15 16
2 8 5 4 11 8 16 12 20 29 6 13 11 14 24 51 56 44 34 29 28 37 32 31 32 32 30 26 20 20 21 23 20 19 21 20 19 16 16 14 9 12 15 15 15 13 13 14 14
4 7 4 9 13 10 28 8 15 20 23 12 8 32 51 56 62 53 39 29 28 37 36 32 30 28 26 22 20 19 19 18 17 18 18 17 14 14 13 8 9 15 18 16 13 10 11 12 11
5 8 10 7 14 12 26 22 20 15 24 21 34 41 61 61 67 62 50 39 31 36 38 32 30 28 24 22 20 18 16 15 14 12 12 12 13 13 11 9 9 12 14 15 12 11 10 9 7
8 10 7 7 6 47 32 22 18 38 5 32 63 69 58 63 66 62 53 44 36 34 35 30 25 20 22 19 18 16 14 13 13 9 5 8 8 8 9 7 8 8 10 11 10 10 12 13 15
6 13 2 1 5 38 22 31 17 22 9 36 42 51 58 66 67 62 59 47 39 34 32 37 36 30 18 15 16 16 13 10 8 7 4 2 2 3 3 4 4 5 6 7 8 9 10 12 15
7 6 10 7 8 32 28 15 12 25 26 40 42 44 52 61 59 55 47 41 35 33 30 30 40 38 31 22 20 15 14 12 9 8 7 6 5 6 7 6 7 7 9 10 11 12 13 14 14
14 16 14 15 5 12 20 7 12 19 32 49 43 39 44 52 52 47 45 44 39 30 30 27 25 30 36 30 26 25 21 17 14 14 12 12 13 11 10 11 11 11 12 13 13 14 16 16 19
24 12 3 12 12 7 27 5 6 34 31 43 45 34 36 40 41 48 45 44 43 36 33 31 28 26 38 37 32 28 24 21 20 19 15 15 16 16 15 15 15 16 16 16 15 15 18 22 27
13 11 9 6 16 7 5 9 10 34 36 36 38 41 43 41 45 42 44 44 42 41 42 38 36 32 32 39 39 33 31 28 27 24 22 17 15 17 19 19 19 20 22 22 22 24 24 30 31
3 9 7 4 12 7 5 6 13 29 31 34 35 42 40 36 41 42 40 43 43 44 43 43 40 38 32 28 31 34 32 29 25 23 21 22 22 18 17 22 23 25 26 25 24 28 37 38 39
10 7 6 12 13 5 10 3 10 24 31 34 39 45 44 43 42 39 41 38 41 41 40 40 45 41 36 33 32 31 33 32 29 27 22 19 20 22 23 23 26 29 32 30 32 36 38 43 45
11 11 13 1 8 8 16 12 16 25 23 26 35 41 42 38 39 45 43 46 43 43 42 40 44 46 44 40 38 36 35 32 30 27 24 25 27 27 28 30 30 32 35 34 35 41 42 47 49
8 13 8 4 4 5 10 16 11 22 21 33 38 38 41 43 42 43 47 49 50 51 48 46 45 47 46 39 32 36 33 31 28 27 27 27 29 31 34 33 33 33 36 39 39 43 45 49 48
12 13 12 14 7 4 9 11 11 11 11 22 24 32 37 39 40 39 42 48 55 59 59 57 52 48 44 34 28 31 35 31 25 21 20 21 23 25 26 25 27 27 29 32 35 37 39 47 49
16 11 13 23 12 10 8 9 13 13 13 13 27 30 28 32 32 32 33 36 42 48 56 64 60 57 42 36 33 29 26 25 21 21 19 15 16 15 17 18 19 20 24 26 30 34 38 41 46
12 15 17 9 9 10 6 5 12 16 10 17 26 28 33 35 38 34 28 25 28 33 41 53 60 58 48 40 32 25 19 20 21 16 12 11 13 15 16 16 16 20 21 26 31 31 31 36 43
16 15 15 10 7 2 10 13 9 12 25 11 31 38 40 38 31 27 24 23 23 23 29 43 51 57 49 48 31 28 22 21 22 20 17 17 15 15 12 18 22 24 24 25 26 31 31 37 41
15 12 5 3 1 11 3 8 15 14 14 22 34 49 44 36 31 29 28 28 27 28 29 34 42 51 54 50 46 35 26 21 22 16 16 15 10 7 4 5 8 12 15 19 22 24 27 30 34
11 15 11 13 8 7 4 12 10 5 10 37 64 56 45 38 39 36 31 32 33 32 32 35 39 44 42 43 42 35 28 29 28 24 19 16 13 10 9 9 12 16 19 23 26 28 32 34 37
11 8 9 14 6 7 8 8 9 6 10 34 52 56 49 48 44 40 39 38 39 40 40 41 46 49 46 46 44 40 35 31 27 24 18 12 11 10 10 13 18 23 27 31 35 39 42 43 46
12 16 5 5 10 7 8 7 10 15 25 19 32 52 58 52 46 46 45 46 46 47 49 48 49 52 51 47 43 40 34 28 23 19 14 10 9 11 14 19 25 31 36 41 45 47 48 50 49
6 6 4 10 9 11 4 12 13 34 33 36 43 64 63 57 54 52 51 49 50 51 50 50 49 49 47 43 39 35 31 24 19 12 10 9 13 17 23 29 34 38 41 45 48 50 53 55 57
1 13 11 10 11 2 6 11 5 11 35 50 51 64 65 60 59 56 56 55 54 53 51 49 48 47 44 40 36 30 25 20 13 9 8 11 17 24 31 36 40 42 44 47 51 55 57 60 62
Wind_Direction_500mb
327 60 7 323 44 63 232 351 129 89 53 75 68 88 109 56 28 141 145 170 164 157 153 147 144 138 143 131 119 97 85 76 83 92 89 91 88 83 86 91 91 91 91 94 96 94 94 99 96
16 64 319 303 90 62 278 111 89 98 113 95 84 114 58 51 102 128 146 173 168 161 149 149 148 144 138 130 124 107 88 78 84 97 90 89 88 81 78 90 96 93 89 92 95 98 103 116 102
45 13 349 99 125 176 174 147 131 114 111 115 103 81 77 111 116 141 158 168 172 160 146 145 136 133 135 129 127 115 92 80 83 97 103 104 104 84 85 78 97 93 96 91 94 93 95 94 90
233 161 254 95 264 291 125 176 126 105 94 89 119 80 82 142 146 147 150 162 168 151 148 151 141 138 134 129 127 114 85 83 91 98 97 109 109 96 96 81 95 93 92 89 91 88 90 93 96
78 266 42 350 33 299 86 140 133 132 137 105 114 103 87 116 149 152 160 150 132 132 139 144 141 141 136 131 130 122 101 96 95 96 97 101 110 114 94 87 87 91 84 79 79 82 80 85 83
47 106 51 264 204 103 87 147 143 122 133 111 114 102 102 126 147 156 155 148 150 146 146 146 143 142 144 134 137 132 121 110 99 98 98 98 97 109 92 88 91 102 88 84 82 86 85 84 72
118 89 218 140 245 111 173 131 135 129 124 107 150 97 138 145 151 157 157 158 165 157 147 142 137 142 152 147 148 143 123 101 90 88 91 101 103 113 113 114 109 95 100 99 96 83 75 69 71
237 108 319 223 211 174 172 145 122 123 142 110 120 156 169 159 152 154 165 164 159 154 148 147 144 146 149 154 146 124 103 95 99 98 94 98 99 106 118 123 92 64 66 64 67 69 65 59 58
184 70 279 261 169 180 158 129 87 109 122 86 111 162 165 158 151 158 169 177 172 155 153 153 151 150 151 151 143 130 125 122 109 95 92 92 94 95 95 91 55 53 54 54 52 50 49 52 59
140 119 233 271 151 172 156 144 125 119 112 93 112 132 152 158 158 163 171 179 182 171 159 157 161 155 156 159 155 149 144 134 125 117 107 98 85 82 75 68 56 51 47 50 50 36 32 28 49
186 183 253 343 148 157 150 152 143 139 154 163 144 149 160 164 166 171 176 187 190 185 168 170 167 165 160 163 164 163 162 154 146 140 108 79 68 64 59 59 44 38 42 34 32 22 13 3 13
165 248 134 280 89 150 147 152 144 167 151 186 170 165 166 172 174 180 178 190 198 202 192 179 171 178 191 188 183 180 179 185 160 165 176 105 52 15 27 17 18 358 8 5 16 3 8 6 359
213 182 136 135 121 145 142 139 134 131 118 170 167 170 172 179 183 186 185 192 200 203 202 202 184 183 187 194 193 195 191 198 216 214 218 239 254 275 296 306 314 333 332 337 343 345 354 354 348
235 194 152 152 154 111 130 135 151 161 141 154 166 174 177 183 188 191 190 193 204 212 213 212 213 206 194 194 190 191 192 196 220 226 230 245 257 262 273 286 299 306 308 318 333 336 335 332 329
152 106 107 149 177 132 124 57 190 164 164 154 174 180 184 188 192 197 195 198 207 213 221 224 229 216 211 208 213 202 210 212 222 229 244 234 252 262 272 280 287 293 294 294 305 314 320 320 319
144 89 139 238 160 180 161 212 221 176 181 174 176 183 191 191 200 201 201 202 206 210 215 226 233 230 220 228 224 221 219 224 227 233 240 253 261 256 264 274 283 288 293 291 287 289 295 299 307
175 174 166 158 200 152 163 188 206 179 187 178 180 186 190 189 203 203 206 204 206 215 217 224 230 239 239 235 227 222 224 229 231 236 237 243 257 269 275 271 272 278 283 285 291 297 293 296 298
164 169 170 163 201 188 153 242 195 188 201 194 184 187 186 191 194 191 199 201 208 213 222 220 226 234 243 248 248 221 223 231 235 241 244 254 266 268 273 280 284 289 295 305 297 295 295 296 300
148 200 169 308 183 133 192 185 211 197 201 182 181 170 178 192 191 197 198 201 201 206 216 220 219 224 234 239 244 222 225 230 236 242 250 262 271 274 283 289 285 286 289 289 287 291 295 298 300
173 195 165 5 43 126 178 229 220 195 209 187 174 185 186 180 182 195 204 205 203 207 205 208 224 231 237 242 248 231 228 233 242 249 254 258 267 274 278 280 278 278 280 283 289 294 299 296 302
187 184 187 161 144 1 109 312 218 208 181 180 168 166 177 188 193 206 213 214 214 215 215 210 213 223 236 241 233 225 224 234 242 248 253 258 265 268 278 277 278 279 282 281 286 293 295 302 302
214 174 146 136 122 199 148 252 246 198 187 197 191 186 180 193 202 210 217 217 218 217 216 215 214 222 216 218 223 226 220 229 236 243 249 254 263 272 278 280 286 298 298 298 294 293 295 300 302
193 134 144 132 121 113 188 110 255 139 195 218 206 201 189 193 203 208 216 221 222 218 215 212 210 215 213 203 210 217 210 213 217 219 222 220 228 244 262 274 277 274 273 276 288 285 293 298 295
137 91 55 63 77 282 216 167 257 189 203 165 190 182 177 181 194 201 194 190 192 194 193 199 202 201 208 202 190 194 190 169 185 188 199 206 220 231 250 259 274 279 290 297 304 305 301 299 295
116 106 61 43 307 218 0 184 242 223 215 182 174 169 166 184 183 180 174 168 163 168 169 174 187 192 201 207 205 210 206 212 197 171 138 136 139 122 78 27 349 342 337 333 330 328 322 319 317
175 152 151 170 188 223 333 224 247 292 260 192 178 172 175 179 176 170 167 163 156 154 156 157 161 169 182 192 198 200 179 152 142 133 128 125 113 92 56 20 359 350 344 337 331 327 323 321 317
217 181 165 101 33 74 213 282 308 72 106 144 160 167 170 170 174 169 164 160 154 150 146 149 148 146 149 151 152 149 145 141 134 128 123 113 88 60 26 6 352 341 335 330 327 323 319 318 318
172 156 102 15 134 237 274 251 224 197 191 169 165 168 168 172 172 167 164 160 154 152 147 147 144 142 142 144 146 143 139 136 128 123 117 92 54 26 2 346 339 334 330 327 325 323 322 320 318
150 187 160 127 145 164 169 254 219 197 183 180 173 174 175 173 174 169 166 163 160 158 155 153 150 147 145 147 144 143 139 136 127 114 87 46 17 355 345 338 335 332 331 327 324 323 322 321 320
120 203 157 169 211 152 160 262 194 199 183 175 174 177 180 182 178 174 171 171 168 163 160 159 156 155 153 151 149 146 140 130 122 94 43 9 345 340 336 335 332 329 327 325 323 322 321 321 320
Wind_Speed_850mb
2 11 6 5 6 9 4 3 9 9 8 19 22 26 23 19 6 10 38 21 25 33 32 29 27 27 26 23 24 24 25 23 22 25 29 33 34 35 33 32 35 34 36 37 34 32 35 37 36
4 7 6 4 7 4 9 7 17 12 18 23 29 21 19 8 20 35 36 34 26 30 34 30 27 29 31 27 26 25 24 22 20 26 34 36 33 29 32 33 34 38 35 33 32 33 32 33 30
4 4 4 6 3 4 8 7 14 18 16 8 10 24 13 16 29 37 38 34 31 33 34 31 31 30 29 28 28 22 19 21 19 26 30 38 33 26 33 31 31 36 26 30 30 26 25 22 25
1 4 6 7 3 10 12 12 34 15 15 13 28 20 18 16 17 35 39 31 31 39 31 30 26 28 32 29 28 20 17 20 21 25 27 31 29 31 27 27 33 31 24 25 24 23 24 24 23
3 4 3 2 2 3 8 39 28 11 17 10 17 9 14 14 20 52 41 34 35 33 30 29 28 30 31 29 29 18 15 19 25 23 26 25 25 26 25 31 32 23 17 22 22 21 20 22 20
1 1 5 5 6 4 8 33 27 20 26 36 37 22 11 18 61 49 41 37 27 31 35 35 34 33 33 31 26 19 19 21 25 23 24 24 23 24 29 26 24 17 15 17 19 19 18 17 17
6 7 8 1 7 7 6 12 24 24 19 8 26 12 33 41 53 46 37 31 27 31 29 31 32 31 33 29 24 22 22 26 26 23 24 23 22 24 26 24 16 9 8 13 15 15 15 15 16
2 8 5 4 11 8 16 12 20 29 6 13 11 14 24 51 56 44 34 29 28 37 32 31 32 32 30 26 20 20 21 23 20 19 21 20 19 16 16 14 9 12 15 15 15 13 13 14 14
4 7 4 9 13 10 28 8 15 20 23 12 8 32 51 56 62 53 39 29 28 37 36 32 30 28 26 22 20 19 19 18 17 18 18 17 14 14 13 8 9 15 18 16 13 10 11 12 11
5 8 10 7 14 12 26 22 20 15 24 21 34 41 61 61 67 62 50 39 31 36 38 32 30 28 24 22 20 18 16 15 14 12 12 12 13 13 11 9 9 12 14 15 12 11 10 9 7
8 10 7 7 6 47 32 22 18 38 5 32 63 69 58 63 66 62 53 44 36 34 35 30 25 20 22 19 18 16 14 13 13 9 5 8 8 8 9 7 8 8 10 11 10 10 12 13 15
6 13 2 1 5 38 22 31 17 22 9 36 42 51 58 66 67 62 59 47 39 34 32 37 36 30 18 15 16 16 13 10 8 7 4 2 2 3 3 4 4 5 6 7 8 9 10 12 15
7 6 10 7 8 32 28 15 12 25 26 40 42 44 52 61 59 55 47 41 35 33 30 30 40 38 31 22 20 15 14 12 9 8 7 6 5 6 7 6 7 7 9 10 11 12 13 14 14
14 16 14 15 5 12 20 7 12 19 32 49 43 39 44 52 52 47 45 44 39 30 30 27 25 30 36 30 26 25 21 17 14 14 12 12 13 11 10 11 11 11 12 13 13 14 16 16 19
24 12 3 12 12 7 27 5 6 34 31 43 45 34 36 40 41 48 45 44 43 36 33 31 28 26 38 37 32 28 24 21 20 19 15 15 16 16 15 15 15 16 16 16 15 15 18 22 27
13 11 9 6 16 7 5 9 10 34 36 36 38 41 43 41 45 42 44 44 42 41 42 38 36 32 32 39 39 33 31 28 27 24 22 17 15 17 19 19 19 20 22 22 22 24 24 30 31
3 9 7 4 12 7 5 6 13 29 31 34 35 42 40 36 41 42 40 43 43 44 43 43 40 38 32 28 31 34 32 29 25 23 21 22 22 18 17 22 23 25 26 25 24 28 37 38 39
10 7 6 12 13 5 10 3 10 24 31 34 39 45 44 43 42 39 41 38 41 41 40 40 45 41 36 33 32 31 33 32 29 27 22 19 20 22 23 23 26 29 32 30 32 36 38 43 45
11 11 13 1 8 8 16 12 16 25 23 26 35 41 42 38 39 45 43 46 43 43 42 40 44 46 44 40 38 36 35 32 30 27 24 25 27 27 28 30 30 32 35 34 35 41 42 47 49
8 13 8 4 4 5 10 16 11 22 21 33 38 38 41 43 42 43 47 49 50 51 48 46 45 47 46 39 32 36 33 31 28 27 27 27 29 31 34 33 33 33 36 39 39 43 45 49 48
12 13 12 14 7 4 9 11 11 11 11 22 24 32 37 39 40 39 42 48 55 59 59 57 52 48 44 34 28 31 35 31 25 21 20 21 23 25 26 25 27 27 29 32 35 37 39 47 49
16 11 13 23 12 10 8 9 13 13 13 13 27 30 28 32 32 32 33 36 42 48 56 64 60 57 42 36 33 29 26 25 21 21 19 15 16 15 17 18 19 20 24 26 30 34 38 41 46
12 15 17 9 9 10 6 5 12 16 10 17 26 28 33 35 38 34 28 25 28 33 41 53 60 58 48 40 32 25 19 20 21 16 12 11 13 15 16 16 16 20 21 26 31 31 31 36 43
16 15 15 10 7 2 10 13 9 12 25 11 31 38 40 38 31 27 24 23 23 23 29 43 51 57 49 48 31 28 22 21 22 20 17 17 15 15 12 18 22 24 24 25 26 31 31 37 41
15 12 5 3 1 11 3 8 15 14 14 22 34 49 44 36 31 29 28 28 27 28 29 34 42 51 54 50 46 35 26 21 22 16 16 15 10 7 4 5 8 12 15 19 22 24 27 30 34
11 15 11 13 8 7 4 12 10 5 10 37 64 56 45 38 39 36 31 32 33 32 32 35 39 44 42 43 42 35 28 29 28 24 19 16 13 10 9 9 12 16 19 23 26 28 32 34 37
11 8 9 14 6 7 8 8 9 6 10 34 52 56 49 48 44 40 39 38 39 40 40 41 46 49 46 46 44 40 35 31 27 24 18 12 11 10 10 13 18 23 27 31 35 39 42 43 46
12 16 5 5 10 7 8 7 10 15 25 19 32 52 58 52 46 46 45 46 46 47 49 48 49 52 51 47 43 40 34 28 23 19 14 10 9 11 14 19 25 31 36 41 45 47 48 50 49
6 6 4 10 9 11 4 12 13 34 33 36 43 64 63 57 54 52 51 49 50 51 50 50 49 49 47 43 39 35 31 24 19 12 10 9 13 17 23 29 34 38 41 45 48 50 53 55 57
1 13 11 10 11 2 6 11 5 11 35 50 51 64 65 60 59 56 56 55 54 53 51 49 48 47 44 40 36 30 25 20 13 9 8 11 17 24 31 36 40 42 44 47 51 55 57 60 62
Wind_Direction_850mb
327 60 7 323 44 63 232 351 129 89 53 75 68 88 109 56 28 141 145 170 164 157 153 147 144 138 143 131 119 97 85 76 83 92 89 91 88 83 86 91 91 91 91 94 96 94 94 99 96
16 64 319 303 90 62 278 111 89 98 113 95 84 114 58 51 102 128 146 173 168 161 149 149 148 144 138 130 124 107 88 78 84 97 90 89 88 81 78 90 96 93 89 92 95 98 103 116 102
45 13 349 99 125 176 174 147 131 114 111 115 103 81 77 111 116 141 158 168 172 160 146 145 136 133 135 129 127 115 92 80 83 97 103 104 104 84 85 78 97 93 96 91 94 93 95 94 90
233 161 254 95 264 291 125 176 126 105 94 89 119 80 82 142 146 147 150 162 168 151 148 151 141 138 134 129 127 114 85 83 91 98 97 109 109 96 96 81 95 93 92 89 91 88 90 93 96
78 266 42 350 33 299 86 140 133 132 137 105 114 103 87 116 149 152 160 150 132 132 139 144 141 141 136 131 130 122 101 96 95 96 97 101 110 114 94 87 87 91 84 79 79 82 80 85 83
47 106 51 264 204 103 87 147 143 122 133 111 114 102 102 126 147 156 155 148 150 146 146 146 143 142 144 134 137 132 121 110 99 98 98 98 97 109 92 88 91 102 88 84 82 86 85 84 72
118 89 218 140 245 111 173 131 135 129 124 107 150 97 138 145 151 157 157 158 165 157 147 142 137 142 152 147 148 143 123 101 90 88 91 101 103 113 113 114 109 95 100 99 96 83 75 69 71
237 108 319 223 211 174 172 145 122 123 142 110 120 156 169 159 152 154 165 164 159 154 148 147 144 146 149 154 146 124 103 95 99 98 94 98 99 106 118 123 92 64 66 64 67 69 65 59 58
184 70 279 261 169 180 158 129 87 109 122 86 111 162 165 158 151 158 169 177 172 155 153 153 151 150 151 151 143 130 125 122 109 95 92 92 94 95 95 91 55 53 54 54 52 50 49 52 59
140 119 233 271 151 172 156 144 125 119 112 93 112 132 152 158 158 163 171 179 182 171 159 157 161 155 156 159 155 149 144 134 125 117 107 98 85 82 75 68 56 51 47 50 50 36 32 28 49
186 183 253 343 148 157 150 152 143 139 154 163 144 149 160 164 166 171 176 187 190 185 168 170 167 165 160 163 164 163 162 154 146 140 108 79 68 64 59 59 44 38 42 34 32 22 13 3 13
165 248 134 280 89 150 147 152 144 167 151 186 170 165 166 172 174 180 178 190 198 202 192 179 171 178 191 188 183 180 179 185 160 165 176 105 52 15 27 17 18 358 8 5 16 3 8 6 359
213 182 136 135 121 145 142 139 134 131 118 170 167 170 172 179 183 186 185 192 200 203 202 202 184 183 187 194 193 195 191 198 216 214 218 239 254 275 296 306 314 333 332 337 343 345 354 354 348
235 194 152 152 154 111 130 135 151 161 141 154 166 174 177 183 188 191 190 193 204 212 213 212 213 206 194 194 190 191 192 196 220 226 230 245 257 262 273 286 299 306 308 318 333 336 335 332 329
152 106 107 149 177 132 124 57 190 164 164 154 174 180 184 188 192 197 195 198 207 213 221 224 229 216 211 208 213 202 210 212 222 229 244 234 252 262 272 280 287 293 294 294 305 314 320 320 319
144 89 139 238 160 180 161 212 221 176 181 174 176 183 191 191 200 201 201 202 206 210 215 226 233 230 220 228 224 221 219 224 227 233 240 253 261 256 264 274 283 288 293 291 287 289 295 299 307
175 174 166 158 200 152 163 188 206 179 187 178 180 186 190 189 203 203 206 204 206 215 217 224 230 239 239 235 227 222 224 229 231 236 237 243 257 269 275 271 272 278 283 285 291 297 293 296 298
164 169 170 163 201 188 153 242 195 188 201 194 184 187 186 191 194 191 199 201 208 213 222 220 226 234 243 248 248 221 223 231 235 241 244 254 266 268 273 280 284 289 295 305 297 295 295 296 300
148 200 169 308 183 133 192 185 211 197 201 182 181 170 178 192 191 197 198 201 201 206 216 220 219 224 234 239 244 222 225 230 236 242 250 262 271 274 283 289 285 286 289 289 287 291 295 298 300
173 195 165 5 43 126 178 229 220 195 209 187 174 185 186 180 182 195 204 205 203 207 205 208 224 231 237 242 248 231 228 233 242 249 254 258 267 274 278 280 278 278 280 283 289 294 299 296 302
187 184 187 161 144 1 109 312 218 208 181 180 168 166 177 188 193 206 213 214 214 215 215 210 213 223 236 241 233 225 224 234 242 248 253 258 265 268 278 277 278 279 282 281 286 293 295 302 302
214 174 146 136 122 199 148 252 246 198 187 197 191 186 180 193 202 210 217 217 218 217 216 215 214 222 216 218 223 226 220 229 236 243 249 254 263 272 278 280 286 298 298 298 294 293 295 300 302
193 134 144 132 121 113 188 110 255 139 195 218 206 201 189 193 203 208 216 221 222 218 215 212 210 215 213 203 210 217 210 213 217 219 222 220 228 244 262 274 277 274 273 276 288 285 293 298 295
137 91 55 63 77 282 216 167 257 189 203 165 190 182 177 181 194 201 194 190 192 194 193 199 202 201 208 202 190 194 190 169 185 188 199 206 220 231 250 259 274 279 290 297 304 305 301 299 295
116 106 61 43 307 218 0 184 242 223 215 182 174 169 166 184 183 180 174 168 163 168 169 174 187 192 201 207 205 210 206 212 197 171 138 136 139 122 78 27 349 342 337 333 330 328 322 319 317
175 152 151 170 188 223 333 224 247 292 260 192 178 172 175 179 176 170 167 163 156 154 156 157 161 169 182 192 198 200 179 152 142 133 128 125 113 92 56 20 359 350 344 337 331 327 323 321 317
217 181 165 101 33 74 213 282 308 72 106 144 160 167 170 170 174 169 164 160 154 150 146 149 148 146 149 151 152 149 145 141 134 128 123 113 88 60 26 6 352 341 335 330 327 323 319 318 318
172 156 102 15 134 237 274 251 224 197 191 169 165 168 168 172 172 167 164 160 154 152 147 147 144 142 142 144 146 143 139 136 128 123 117 92 54 26 2 346 339 334 330 327 325 323 322 320 318
150 187 160 127 145 164 169 254 219 197 183 180 173 174 175 173 174 169 166 163 160 158 155 153 150 147 145 147 144 143 139 136 127 114 87 46 17 355 345 338 335 332 331 327 324 323 322 321 320
120 203 157 169 211 152 160 262 194 199 183 175 174 177 180 182 178 174 171 171 168 163 160 159 156 155 153 151 149 146 140 130 122 94 43 9 345 340 336 335 332 329 327 325 323 322 321 321 320